TimeCST,TemperatureF,Dew PointF,Humidity,Sea Level PressureIn,VisibilityMPH,Wind Direction,Wind SpeedMPH,Gust SpeedMPH,PrecipitationIn,Events,Conditions,WindDirDegrees,DateUTC
12:55 AM,18.7,16.5,91,29.91,10.0,ESE,8.1,-,N/A,,Clear,120,2013-01-18 06:55:00
1:55 AM,20.7,18.7,92,29.87,10.0,South,6.9,-,N/A,,Clear,170,2013-01-18 07:55:00
3:55 AM,19.4,17.8,93,29.82,10.0,SW,3.5,-,N/A,,Clear,220,2013-01-18 09:55:00
4:55 AM,16.3,14.4,92,29.81,8.0,Calm,Calm,-,N/A,,Clear,0,2013-01-18 10:55:00
5:55 AM,24.6,22.1,90,29.77,10.0,West,12.7,-,N/A,,Clear,260,2013-01-18 11:55:00
6:55 AM,18.0,16.0,92,29.78,10.0,Calm,Calm,-,N/A,,Clear,0,2013-01-18 12:55:00
7:55 AM,22.8,20.1,89,29.79,10.0,WNW,11.5,-,N/A,,Mostly Cloudy,300,2013-01-18 13:55:00
8:55 AM,20.3,18.1,91,29.81,10.0,NNW,5.8,-,N/A,,Overcast,340,2013-01-18 14:55:00
9:55 AM,20.5,18.0,90,29.84,10.0,North,3.5,-,N/A,,Mostly Cloudy,350,2013-01-18 15:55:00
10:55 AM,21.6,16.9,82,29.83,10.0,Calm,Calm,-,N/A,,Partly Cloudy,0,2013-01-18 16:55:00
11:55 AM,24.1,19.2,82,29.81,10.0,South,8.1,-,N/A,,Mostly Cloudy,180,2013-01-18 17:55:00
12:55 PM,31.8,26.1,79,29.76,10.0,WSW,8.1,-,N/A,,Scattered Clouds,250,2013-01-18 18:55:00
1:55 PM,34.5,28.6,79,29.74,10.0,WNW,4.6,-,N/A,,Clear,290,2013-01-18 19:55:00
2:55 PM,35.6,29.1,77,29.73,10.0,SW,5.8,-,N/A,,Overcast,230,2013-01-18 20:55:00
3:55 PM,35.2,29.5,80,29.73,10.0,West,8.1,-,N/A,,Scattered Clouds,270,2013-01-18 21:55:00
4:55 PM,34.7,29.3,81,29.75,10.0,WSW,10.4,-,N/A,,Partly Cloudy,250,2013-01-18 22:55:00
5:55 PM,34.0,29.1,82,29.74,10.0,West,6.9,-,N/A,,Partly Cloudy,260,2013-01-18 23:55:00
6:55 PM,33.1,28.6,84,29.75,10.0,West,9.2,-,N/A,,Partly Cloudy,260,2013-01-19 00:55:00
7:55 PM,33.1,28.0,82,29.72,10.0,WSW,5.8,-,N/A,,Clear,250,2013-01-19 01:55:00
8:55 PM,33.4,28.0,81,29.73,10.0,WSW,9.2,-,N/A,,Partly Cloudy,250,2013-01-19 02:55:00
9:55 PM,33.1,27.9,81,29.71,10.0,West,10.4,-,N/A,,Mostly Cloudy,270,2013-01-19 03:55:00
10:55 PM,34.2,28.0,78,29.70,10.0,WNW,13.8,-,N/A,,Overcast,290,2013-01-19 04:55:00
11:55 PM,35.4,28.0,75,29.70,10.0,West,19.6,-,N/A,,Scattered Clouds,270,2013-01-19 05:55:00